Regional Weather Roundup
Issued by NWS

Home | Current Version | Previous Version | Text Only | Print | Product List | Glossary On
Versions: 1 2 3 4 5 6 7 8 9 10 11 12 13 14 15 16 17 18 19 20 21 22 23 24 25 26 27 28 29 30 31 32 33 34 35 36 37 38 39 40 41 42 43 44 45 46 47 48 49 50
000
ASUS43 KMPX 270110
RWRMN
WEATHER ROUNDUP FOR MINNESOTA
NATIONAL WEATHER SERVICE TWIN CITIES/CHANHASSEN MN
700 PM CST WED NOV 26 2014


NOTE: "FAIR" INDICATES FEW OR NO CLOUDS BELOW 12,000 FEET WITH NO
SIGNIFICANT WEATHER AND/OR OBSTRUCTIONS TO VISIBILITY. N/A MEANS
CURRENT SKY AND/OR WEATHER CONDITIONS ARE NOT AVAILABLE.

MNZ060>063-068>070-270200-
   Twin Cities Metro

CITY           SKY/WX    TMP DP  RH WIND       PRES   REMARKS
TWIN CITIES    CLOUDY    22  14  71 NW13G18   30.30R WCI  10
ST PAUL        CLOUDY    23  15  71 NW16      30.31R WCI  10
CRYSTAL        CLOUDY    23  12  62 N12       30.30R WCI  12
BLAINE         MOCLDY    23  14  68 N10       30.30R WCI  12
LAKEVILLE      CLOUDY    21  18  86 NW8       30.28S WCI  12
EDEN PRAIRIE   CLOUDY    21  13  71 NW12      30.29R WCI   9
SOUTH ST PAUL  CLOUDY    25  17  71 N12       30.28S WCI  14
LAKE ELMO      CLOUDY    23  18  80 N6        30.28S WCI  16
$$
MNZ001>005-007-008-013>017-022>024-027-028-270200-
   Northwest Minnesota

CITY           SKY/WX    TMP DP  RH WIND       PRES   REMARKS
BEMIDJI        CLEAR     -6 -12  76 NW7       30.40R WCI -20
HALLOCK        PTCLDY    -8 -13  77 CALM      30.53R
ROSEAU         PTCLDY    -6 -13  71 NW6       30.47R WCI -18
WARROAD        CLEAR     -6 -11  77 NW8       30.46R WCI -21
THIEF RVR FALL CLEAR     -6 -11  77 NW9       30.47R WCI -22
CROOKSTON      CLEAR     -4  -9  77 N9        30.52S WCI -20
FOSSTON        CLEAR     -8 -11  84 NW6       30.44S WCI -21
DETROIT LAKES  CLEAR     -2  -6  84 NW8       30.43R WCI -17
MOORHEAD       CLEAR     -4  -8  84 N3        30.51R
PARK RAPIDS    CLEAR     -2  -9  72 NW9       30.38R WCI -18
MAHNOMEN       FAIR      -5 -10  80 NW8       30.44S WCI -20
$$
MNZ006-009>011-018-025>026-270200-
   North Central Minnesota

CITY           SKY/WX    TMP DP  RH WIND       PRES   REMARKS
BAUDETTE       PTCLDY    -7 -12  79 CALM      30.42R
FLAG ISLAND    CLEAR     -6 -11  77 NW8       30.44R WCI -21
INTL FALLS     CLEAR     -4  -8  83 NW7       30.39R WCI -18
WASKISH        CLEAR     -4  -8  84 CALM      30.42R
BIG FORK       CLEAR      0  -8  71 NW3       30.38R
LONGVILLE      CLEAR      1  -6  71 NW3       30.37R
GRAND RAPIDS   CLEAR      3  -6  66 NW15      30.33R WCI -15
CRANE LAKE     MOCLDY     0  -6  78 N5        30.39R WCI -10
ORR            CLEAR      0  -9  65 NW6       30.32S WCI -12
COOK           CLEAR      0  -8  71 NW3       30.34S
WALKER         FAIR      -2  -8  72 NW3       30.39R
$$
MNZ012-019>021-037-270200-
   Northeast Minnesota

CITY           SKY/WX    TMP DP  RH WIND       PRES   REMARKS
DULUTH         PTCLDY     8  -2  63 N12       30.27R WCI  -7
ELY            CLEAR      1  -6  71 NW5       30.30S WCI  -8
HIBBING        CLEAR      4  -6  63 N12       30.33R WCI -12
EVELETH        CLEAR      5  -4  66 N8        30.33R WCI  -8
DULUTH HARBOR  PTCLDY    16   5  62 N15G24    30.36R WCI   1
TWO HARBORS    CLEAR     12   1  62 N3        30.29R
SILVER BAY     CLEAR     10   1  67 N5        30.28R WCI   2
GRAND MARAIS     N/A     10   0  63 N16G35    30.29R WCI  -7
G MARAIS ARPRT FAIR       1  -6  71 N14G20    30.21R WCI -17
$$
MNZ029>031-032-039>041-046>048-054>057-064-270200-
   West Central Minnesota

CITY           SKY/WX    TMP DP  RH WIND       PRES   REMARKS
FERGUS FALLS   CLEAR     -2  -8  78 N14G21    30.49R WCI -21
WHEATON        PTCLDY     0  -6  78 NW10G16   30.50R WCI -17
MORRIS         PTCLDY     1  -4  78 NW17      30.42R WCI -19
ALEXANDRIA     PTCLDY     4  -7  60 N13       30.37R WCI -13
ELBOW LAKE     FAIR       0  -4  82 NW14G20   30.43R WCI -19
WADENA         CLEAR      1  -6  71 NW10      30.38R WCI -14
GLENWOOD       MOCLDY     9  -4  56 NW14G21   30.36R WCI  -8
APPLETON       CLOUDY     7   0  72 NW25      30.44R WCI -15
BENSON         CLOUDY     7   0  72 N18       30.41R WCI -12
ORTONVILLE     CLOUDY     5  -4  66 NW17      30.44R WCI -14
MADISON        MOCLDY    10   1  67 NW16G23   30.44R WCI  -7
WILLMAR        MOCLDY    12   5  73 NW15      30.37R WCI  -4
$$
MNZ033>034-036-042>043-049>051-058-059-270200-
   Central Minnesota

CITY           SKY/WX    TMP DP  RH WIND       PRES   REMARKS
ST CLOUD       CLOUDY    18   5  57 N14       30.33R WCI   4
SAUK CENTRE    CLOUDY    10   1  66 NW14G22   30.36R WCI  -6
PAYNESVILLE    CLOUDY    12   7  79 W13       30.35R WCI  -3
AITKIN         CLEAR     10  -6  48 NW9       30.33R WCI  -2
PINE RIVER     PTCLDY     5  -6  61 N9        30.39R WCI  -9
BRAINERD       PTCLDY     7  -5  57 N12       30.36R WCI  -8
STAPLES        PTCLDY     3  -9  55 NW9       30.37R WCI -11
LONG PRAIRIE   FAIR       9   0  66 NW15      30.36R WCI  -8
LITTLE FALLS   PTCLDY    14  -4  44 N8        30.36R WCI   3
LITCHFIELD     CLOUDY    19   9  63 N15       30.33R WCI   5
BUFFALO        CLOUDY    19   9  64 NW13      30.33R WCI   7
MAPLE LAKE     CLOUDY    19  10  66 N10       30.33R WCI   8
$$
MNZ037-044-045-052-053-270200-
   East Central Minnesota

CITY           SKY/WX    TMP DP  RH WIND       PRES   REMARKS
PRINCETON      CLOUDY    18   9  68 NW14      30.32R WCI   4
MORA           PTCLDY    18   5  57 N12G20    30.33R WCI   5
CAMBRIDGE      CLOUDY    21   9  58 NW10      30.30R WCI  10
RUSH CITY      CLOUDY    19   9  63 N12G17    30.31R WCI   7
MOOSE LAKE     PTCLDY    12   1  62 N9        30.31R WCI   0
HINCKLEY       CLOUDY    18   7  62 N13G22    30.32R WCI   4
CLOQUET        CLEAR     10   0  61 NW10      30.30R WCI  -3
MCGREGOR       CLEAR     10  -4  52 NW9       30.34R WCI  -2
$$
MNZ071>073-080-081-089-090-097-098-270200-
   Southwest Minnesota

CITY           SKY/WX    TMP DP  RH WIND       PRES   REMARKS
MONTEVIDEO     CLOUDY     7   1  78 N17       30.42R WCI -12
GRANITE FALLS  CLOUDY     9   3  78 NW21      30.41R WCI -11
CANBY          CLOUDY     8   1  72 NW15      30.44R WCI -10
MARSHALL       MOCLDY     9   0  66 N22       30.38S WCI -11
REDWOOD FALLS  CLOUDY    11   6  81 NW16G23   30.37R WCI  -6
OLIVIA         LGT SNOW  12   9  85 NW17G25   30.36R WCI  -5
PIPESTONE      CLOUDY    10   1  67 N12       30.35R WCI  -4
WINDOM         FLURRIES  10   7  85 NW15G21   30.34R WCI  -6
WORTHINGTON    CLOUDY    10   7  85 N17       30.34R WCI  -7
JACKSON        CLOUDY    14   9  79 NW15      30.32R WCI  -1
TRACY          CLOUDY    10   4  78 NW17      30.37R WCI  -8
SLAYTON        CLOUDY     9   3  78 NW16      30.35R WCI  -9
$$
MNZ065>067-074>077-082>085-091>093-270200-
   South Central Minnesota

CITY           SKY/WX    TMP DP  RH WIND       PRES   REMARKS
MANKATO        CLOUDY    18  10  73 NW15G21   30.31R WCI   3
NEW ULM        CLOUDY    12   9  85 NW17      30.33S WCI  -5
ST JAMES       CLOUDY    12   9  85 NW18      30.35R WCI  -5
FAIRMONT       CLOUDY    14   9  79 NW20G26   30.31R WCI  -3
GLENCOE        MOCLDY    21  16  80 NW8       30.31R WCI  11
FARIBAULT      CLOUDY    21  18  86 NW8       30.28R WCI  12
OWATONNA       PTCLDY    23  18  80 NW12      30.26R WCI  12
WASECA         CLOUDY    21  16  79 NW13      30.29R WCI   9
ALBERT LEA     CLOUDY    25  21  86 NW8       30.25R WCI  16
$$
MNZ078>079-086>088-094>096-270200-
   Southeast Minnesota

CITY           SKY/WX    TMP DP  RH WIND       PRES   REMARKS
ROCHESTER      CLOUDY    24  21  88 N13       30.23R WCI  12
RED WING       CLOUDY    25  18  74 NW5       30.27R WCI  19
STANTON        CLOUDY    24  17  76 NW7       30.26S WCI  16
DODGE CENTER   CLOUDY    23  21  93 N7        30.24R WCI  15
WINONA         LGT SNOW  28  27  93 NW3       30.26R
AUSTIN         CLOUDY    25  21  86 N9        30.24R WCI  15
PRESTON        CLOUDY    22  20  92 N8        30.23R WCI  13
$$
ABBREVIATIONS USED IN REMARKS
   TC - TEMPERATURES IN CELSIUS
  WCI - WIND CHILL INDEX
   HX - HEAT INDEX
  VSB - VISIBILITY
$$


USA.gov is the U.S. government's official web portal to all federal, state and local government web resources and services.